This is the latest recevied weather packets stored in our database for station/object LZ1NAG-10. If no packets are shown the sender has not sent any weather packets the latest 10 day(s).
| Time | Temp. | Humidity | Pressure | Rain* | Wind** | Luminosity | Snow |
|---|---|---|---|---|---|---|---|
| 1777980792 | 32.78° C | 46% | 1019.5 hPa | - | - | - | - |
| 1777979892 | 33.89° C | 45% | 1020.1 hPa | - | - | - | - |
| 1777978992 | 33.33° C | 45% | 1020.4 hPa | - | - | - | - |
| 1777978091 | 33.33° C | 44% | 1020.8 hPa | - | - | - | - |
| 1777977191 | 32.78° C | 45% | 1020.8 hPa | - | - | - | - |
| 1777976291 | 33.33° C | 45% | 1020.4 hPa | - | - | - | - |
| 1777975391 | 32.22° C | 45% | 1020.8 hPa | - | - | - | - |
| 1777974491 | 31.11° C | 45% | 1020.7 hPa | - | - | - | - |
| 1777973591 | 31.11° C | 45% | 1020.9 hPa | - | - | - | - |
| 1777972690 | 31.11° C | 45% | 1021 hPa | - | - | - | - |
| 1777971790 | 32.22° C | 44% | 1021.3 hPa | - | - | - | - |
| 1777970890 | 31.67° C | 44% | 1021.5 hPa | - | - | - | - |
| 1777969990 | 30° C | 44% | 1021.4 hPa | - | - | - | - |
| 1777969090 | 28.89° C | 45% | 1021.8 hPa | - | - | - | - |
| 1777968190 | 30.56° C | 43% | 1020.9 hPa | - | - | - | - |
| 1777967289 | 31.11° C | 43% | 1021.7 hPa | - | - | - | - |
| 1777966389 | 29.44° C | 43% | 1021.7 hPa | - | - | - | - |
| 1777965489 | 28.89° C | 43% | 1021.7 hPa | - | - | - | - |
| 1777964589 | 28.89° C | 42% | 1021.6 hPa | - | - | - | - |
| 1777963689 | 29.44° C | 41% | 1021.8 hPa | - | - | - | - |
| 1777962789 | 26.67° C | 42% | 1021.7 hPa | - | - | - | - |
| 1777961888 | 26.11° C | 42% | 1022 hPa | - | - | - | - |
| 1777960988 | 25° C | 42% | 1021.8 hPa | - | - | - | - |
| 1777960088 | 23.33° C | 43% | 1021.7 hPa | - | - | - | - |
| 1777959188 | 22.22° C | 43% | 1021.8 hPa | - | - | - | - |
* Rain since midnight (hover to see other rain measurements)
** Current wind speed in m/s (hover to see current wind gust speed)